User: anonymous   Login
Location: 相模原市立博物館
(35.5593°N, 139.3931°E)
Time: 14:27:01
(UTC+09:00)
Language:

FO-29 - Orbit

View from above orbital plane
View from above orbital plane
View from above satellite
View from above satellite

Ground track
Ground track

The orbit data is extracted from the following two-line orbital elements,

1 24278U 96046B   22024.39144600 -.00000035  00000-0  38788-5 0  9993
2 24278  98.5370  67.7678 0349336 297.1027  59.4879 13.53109660256126
Epoch (UTC): 24 January 2022 09:23:40
Eccentricity: 0.0349336
inclination: 98.5370°
perigee height: 801 km
apogee height: 1321 km
right ascension of ascending node: 67.7678°
argument of perigee: 297.1027°
revolutions per day: 13.53109660
mean anomaly at epoch: 59.4879°
orbit number at epoch: 25612

The dashed part of the orbit path shows where the satellite is in the earth's shadow,  

DLR